Weather in Tokma

Russia / Irkutsk Oblast     58°15′16″N   105°51′26″E
temp.,
°C
wind,
m/s
gust,
m/s
humid.,
%
clouds,
%
prec.,
mm/h
press.,
hPa
HPBL,
m
1 march, mon
mon123:00−27sw2298100 0.0 103633
02:00−27sw2398100 0.0 103585
05:00−27sw2298100 0.0 103352
08:00−29ssw2299100 0.1 103219
11:00−24ssw239397 0.0 1030339
14:00−20sw238298 0.1 1026955
17:00−21sw1385100 0.1 1024731
20:00−26se1198100 0.1 102320
2 march, tue
tue223:00−29ese1110053 0.0 102119
02:00−30ne1110075 0.0 102119
05:00−29nne11100100 0.0 101919
08:00−30nne12100100 0.1 101919
11:00−25nne129498 0.0 1018275
14:00−21n128599 0.1 1018697
17:00−21nnw2286100 0.1 1018747
20:00−27n129798 0.1 102119
3 march, wed
wed323:00−29nne129995 0.0 102219
02:00−31nne2210097 0.1 102319
05:00−33nne22100100 0.0 102423
08:00−34nne2299100 0.1 102626
11:00−29nne2495100 0.0 1025305
14:00−24nne2384100 0.0 1026720
17:00−25nne2385100 0.0 1027889
20:00−31ne229598 0.1 103119
4 march, thu
thu423:00−35nne119745 0.0 103319
02:00−37nne119922 0.0 103519
05:00−38ne001000 0.0 103719
08:00−38s00990 0.0 103919
11:00−28s12890 0.0 1039284
14:00−23s228035 0.0 1038657
17:00−22s2382100 0.0 1038727
20:00−29sse229371 0.0 104019
5 march, fri
fri523:00−30sse229518 0.0 103919
02:00−31sse229347 0.0 103819
05:00−31sse229392 0.0 103720
08:00−29se229396 0.0 103543
11:00−22sse258882 0.0 1031261
14:00−15sse368891 0.0 1027390
17:00−13sse3893100 0.1 1024451
20:00−13sse2996100 0.3 1022364